Siga o Apolo11 no Facebook   Siga o Apolo11 no Twiiter
Ciência, Espaço e Tecnologia




Elementos Keplerianos formato Two Line

Para que um programa de rastreio possa saber a localização exata de qualquer satélite no espaço e assim poder rastreá-lo corretamente, é necessário que ele seja carregado com algumas informações.

Estas informações são chamadas de Elementos Orbitais ou Elementos Keplerianos e consistem em 2 linhas com dezenas de números. Esses números nada mais são que os parâmetros orbitais do satélite, tais como altitude, atitude, excentricidade da órbita, número de órbitas por dia, etc.

Com base nestas informações o programa é capaz de determinar com bastante exatidão a posição de qualquer satélite no espaço e nos informar em qual horário este estará dentro do alcance de nossa estação. Para que isso seja feito com precisão é necessário que os dados estejam sempre bem atualizadas.

Devido aos parâmetros orbitais serem descritos em 2 linhas, estes formato é também conhecido internacionalmente por 2line (leia-se Two Line”).

Para atualizar seu programa de rastreio basta copiar os dados disponibilizados e fornece-los ao programa. Nossos elementos orbitais são atualizados diariamente.

NOAATodos os satélites ambientais da série NOAA
30 DiasSatélites lançados nos últimos 30 dias
ISSSatélites e foguetes relacionados à Estação Espacial Internacional
HAMSatélites construídos por radiomadores
CUBESatélites tipo cubo, com 10 centímetros de lado
METEOSatélites voltados à previsão do tempo
EDUSatélites construídos e operados por universidades
VIS100 satélites mais brilhantes que podem ser vistos a olho nú



Satélites Educacionais
SAUDISAT 1C             
1 27607U 02058C   22143.05099814  .00001139  00000+0  17728-3 0  9996
2 27607  64.5561  19.6352 0076976 299.3769  59.9662 14.76099654 44621
SAUDISAT 2              
1 28371U 04025F   22143.45399511  .00000522  00000+0  13294-3 0  9991
2 28371  98.3753 100.1498 0025329 179.0936 181.0305 14.54548121949653
SAUDISAT 3              
1 31118U 07012B   22143.51807085  .00000419  00000+0  79046-4 0  9993
2 31118  97.9679  91.1680 0013696 276.0810  83.8835 14.69317682809444
PISAT                   
1 41784U 16059B   22143.39694574  .00000968  00000+0  19290-3 0  9990
2 41784  97.9174 187.7214 0030434 247.6770 112.1206 14.63881236302022
FLYING LAPTOP           
1 42831U 17042G   22143.51000056  .00001872  00000+0  19067-3 0  9994
2 42831  97.4258 359.4150 0015527  90.8539 269.4445 14.91740724264371
SALSAT                  
1 46495U 20068K   22143.42129434  .00003767  00000+0  27337-3 0  9992
2 46495  97.7283  84.7181 0016804  10.0895 350.0665 15.04410093 90424


IMAGENS DE SATÉLITES !    Clique e conheça nosso Vídeo Workshop de sensoriamento remoto e imagens meteorológicas.
Apolo11.com - Todos os direitos reservados - 2001 - 2022
Política de Privacidade

"Política é a guerra sem sangue enquanto a guerra é a política com sangue" - Mao Tsé-Tung